Location: Proctor
(47.8934°N, 114.3048°W)
Time: 02:45:46
(UTC+00:00)

AO-109 - Pass Details

Date: 09 July 2022
Orbit: 469 x 506 km, 60.7° (Epoch: 11 August)

Event Time Altitude Azimuth Distance (km) Brightness Sun altitude
Exits shadow 08:52:20 32° 141° (SE) 842 ? -18.0°
Maximum altitude 08:52:44 33° 126° (SE) 825 ? -18.0°
Drops below altitude 10° 08:56:07 10° 61° (ENE) 1,669 ? -17.8°
Sets 08:58:25 0° 52° (NE) 2,562 ? -17.7°
